Simultaneous Nadir Overpasses (SNOs) Predictions

Prediction of SNOs between GOES-14 and AQUA Satellite Orbit:

Table of predicted SNOs for the next 14.0 days since TLE Epoch: 3/4/2023
Index Date Time (GOES-14) GOES-14 Lat,Lon AQUA Lat,Lon Distance(km) Time Diff (sec)
1 03/04/2023 08:46:49 0.09,-107.90 -0.39,-105.73 247.41 80
2 03/04/2023 21:07:54 -0.10,-107.94 -0.69,-110.84 329.01 80
3 03/06/2023 20:57:06 -0.10,-107.91 -0.00,-107.55 41.29 80
4 03/08/2023 20:43:37 -0.10,-107.88 0.69,-104.27 412.04 80
5 03/09/2023 09:04:31 0.10,-107.84 0.45,-109.32 169.30 80
6 03/11/2023 08:48:21 0.10,-107.81 -0.26,-106.03 201.59 80
7 03/11/2023 21:09:24 -0.11,-107.83 -0.81,-111.14 375.74 80
8 03/13/2023 20:58:23 -0.11,-107.80 -0.14,-107.83 5.20 71
9 03/15/2023 20:45:01 -0.11,-107.76 0.60,-104.54 366.64 80
10 03/16/2023 09:05:53 0.12,-107.72 0.55,-109.59 213.39 80
